Regional Weather Roundup
Issued by NWS

Home | Current Version | Previous Version | Graphics & Text | Print | Product List | Glossary On
Versions: 1 2 3 4 5 6 7 8 9 10 11 12 13 14 15 16 17 18 19 20 21 22 23 24 25 26 27 28 29 30 31 32 33 34 35 36 37 38 39 40 41 42 43 44 45 46 47 48 49 50
000
ASUS43 KIND 280159
RWRIN

WEATHER ROUNDUP FOR INDIANA
NATIONAL WEATHER SERVICE INDIANAPOLIS IN
1000 PM EDT SUN JUL 27 2014

NOTE: "FAIR" INDICATES FEW OR NO CLOUDS BELOW 12,000 FEET WITH NO
SIGNIFICANT WEATHER AND/OR OBSTRUCTIONS TO VISIBILITY.

* - STATION DOES NOT REPORT WEATHER SUCH AS PRECIPITATION OR FOG.

+ - STATION NOT QUALITY CONTROLLED BY THE NATIONAL WEATHER SERVICE.
    USE DATA WITH CAUTION...ESPECIALLY DEWPOINT AND RELATIVE
    HUMIDITY OBSERVATIONS.

INZ001>003-010>013-019-020-280300-
NORTHWEST INDIANA

CITY           SKY/WX    TMP DP  RH WIND       PRES   REMARKS
GARY /AIRPORT/ MOCLDY    73  55  53 NW12G23   29.82R
VALPARAISO     MOCLDY    67  58  72 N10G17    29.83R

$$

LMZ046-743>745-280300-
SOUTHERN LAKE MICHIGAN

STATION/POSITION TIME  TEMP WIND        PRES
                       AIR  DIR/SP/G
                 (UTC) (F)  (DEG/KT/KT) (MB)
BURNS HARBOR     0100   69   10/ 14/ 19 1010.2R
MICHIGAN CITY    0100   68  340/ 22/ 25   N/A

$$

INZ004-005-014>016-021>024-280300-
NORTH CENTRAL INDIANA

CITY           SKY/WX    TMP DP  RH WIND       PRES   REMARKS
GOSHEN         PTCLDY    68  58  70 NW13      29.77S
PERU/GRISSOM   DRIZZLE   72  59  64 NW12      29.81R
SOUTH BEND     MOCLDY    67  55  65 NW15G23   29.81R

$$

INZ006>009-017-018-025>027-280300-
NORTHEAST INDIANA

CITY           SKY/WX    TMP DP  RH WIND       PRES   REMARKS
ANGOLA *+      CLEAR     66  57  72 NW5       29.75R
FORT WAYNE     MOCLDY    69  59  70 W8        29.78R

$$

INZ028-029-035-036-043>045-051>053-280300-
WEST CENTRAL INDIANA

CITY           SKY/WX    TMP DP  RH WIND       PRES   REMARKS
GREENCASTLE +  CLEAR     72  57  60 NW7G18    29.86R
LAFAYETTE      CLEAR     70  57  63 W12       29.83R
TERRE HAUTE    CLEAR     73  59  61 NW14G22   29.88R

$$

INZ030>032-037>040-046>048-054>057-064-065-280300-
CENTRAL INDIANA

CITY           SKY/WX    TMP DP  RH WIND       PRES   REMARKS
COLUMBUS       MOCLDY    73  63  68 W9        29.81R
INDIANAPOLIS   PTCLDY    72  58  61 NW17G28   29.82R
-EAGLE CREEK   CLEAR     72  57  59 NW16      29.82R
KOKOMO *+      MOCLDY    70  57  64 NW9       29.81R
MT COMFORT *+  PTCLDY    73  61  64 NW14G23   29.82R
SHELBYVILLE    MOCLDY    76  58  53 NW15      29.80R

$$

INZ033-034-041-042-049-050-058-059-280300-
EAST CENTRAL INDIANA

CITY           SKY/WX    TMP DP  RH WIND       PRES   REMARKS
MUNCIE         MOCLDY    72  57  59 NW15G25   29.79R

$$

INZ060-061-067>069-081>083-085>088-280300-
SOUTHWEST INDIANA

CITY           SKY/WX    TMP DP  RH WIND       PRES   REMARKS
EVANSVILLE     CLEAR     81  60  48 NW6       29.87R

$$

INZ062-063-066-070>080-084-089>092-280300-
SOUTH CENTRAL AND SOUTHEAST INDIANA

CITY           SKY/WX    TMP DP  RH WIND       PRES   REMARKS
BLOOMINGTON    CLEAR     74  59  59 NW13G21   29.86R
SEYMOUR +      CLEAR     70  45  40 NW10      29.82

$$



USA.gov is the U.S. government's official web portal to all federal, state and local government web resources and services.